TimeAST,TemperatureF,Dew PointF,Humidity,Sea Level PressureIn,VisibilityMPH,Wind Direction,Wind SpeedMPH,Gust SpeedMPH,PrecipitationIn,Events,Conditions,WindDirDegrees,DateUTC
12:00 AM,96.8,57.2,27,29.50,-9999.0,WNW,5.8,-,N/A,,Clear,300,2013-07-28 21:00:00
1:00 AM,95.0,62.6,34,29.47,-9999.0,WSW,4.6,-,N/A,,Clear,250,2013-07-28 22:00:00
2:00 AM,93.2,64.4,38,29.47,-9999.0,WSW,5.8,-,N/A,,Clear,250,2013-07-28 23:00:00
3:00 AM,91.4,68.0,46,29.47,-9999.0,WSW,4.6,-,N/A,,Clear,250,2013-07-29 00:00:00
4:00 AM,91.4,66.2,43,29.50,-9999.0,WNW,6.9,-,N/A,,Clear,290,2013-07-29 01:00:00
5:00 AM,95.0,59.0,30,29.50,-9999.0,NW,10.4,-,N/A,,Clear,310,2013-07-29 02:00:00
6:00 AM,93.2,64.4,38,29.53,-9999.0,NW,10.4,-,N/A,,Clear,310,2013-07-29 03:00:00
7:00 AM,96.8,62.6,32,29.53,-9999.0,NW,12.7,-,N/A,,Clear,320,2013-07-29 04:00:00
8:00 AM,98.6,64.4,32,29.53,-9999.0,NNW,16.1,-,N/A,,Clear,340,2013-07-29 05:00:00
9:00 AM,100.4,66.2,33,29.53,-9999.0,NNW,18.4,-,N/A,,Clear,340,2013-07-29 06:00:00
10:00 AM,104.0,62.6,26,29.53,-9999.0,North,17.3,-,N/A,,Clear,350,2013-07-29 07:00:00
11:00 AM,105.8,59.0,22,29.53,-9999.0,North,19.6,-,N/A,,Clear,350,2013-07-29 08:00:00
12:00 PM,107.6,57.2,19,29.50,-9999.0,North,19.6,-,N/A,,Clear,350,2013-07-29 09:00:00
1:00 PM,109.4,41.0,10,29.50,4.3,NNW,24.2,36.8,N/A,,Unknown,330,2013-07-29 10:00:00
2:00 PM,107.6,44.6,12,29.50,5.0,NNW,26.5,39.1,N/A,,Unknown,330,2013-07-29 11:00:00
3:00 PM,107.6,46.4,13,29.47,-9999.0,NW,19.6,-,N/A,,Clear,310,2013-07-29 12:00:00
4:00 PM,105.8,44.6,13,29.47,-9999.0,NNW,18.4,32.2,N/A,,Clear,330,2013-07-29 13:00:00
5:00 PM,105.8,42.8,12,29.47,-9999.0,NW,18.4,29.9,N/A,,Clear,320,2013-07-29 14:00:00
6:00 PM,102.2,51.8,18,29.47,-9999.0,NW,12.7,-,N/A,,Clear,320,2013-07-29 15:00:00
7:00 PM,100.4,55.4,22,29.50,-9999.0,NW,10.4,-,N/A,,Clear,320,2013-07-29 16:00:00
8:00 PM,98.6,51.8,21,29.50,-9999.0,NW,12.7,-,N/A,,Clear,320,2013-07-29 17:00:00
9:00 PM,98.6,51.8,21,29.50,-9999.0,NW,12.7,-,N/A,,Clear,320,2013-07-29 18:00:00
10:00 PM,98.6,55.4,24,29.50,-9999.0,NW,11.5,-,N/A,,Clear,310,2013-07-29 19:00:00
11:00 PM,98.6,55.4,24,29.47,-9999.0,NW,12.7,-,N/A,,Clear,310,2013-07-29 20:00:00